Tracking 22879 objects as of 23-Apr-2021
HD Live streaming from Space Station
objects crossing your sky now

ONEWEB-0098

Track ONEWEB-0098 now!
10-day predictions
ONEWEB-0098 is classified as:


NORAD ID: 45442
Int'l Code: 2020-020U
Perigee: 1,222.9 km
Apogee: 1,225.5 km
Inclination: 87.9 °
Period: 109.8 minutes
Semi major axis: 7595 km
RCS: Unknown
Launch date: March 21, 2020
Source: United Kingdom (UK)
Launch site: TYURATAM MISSILE AND SPACE COMPLEX (TTMTR)
aabbcc
Your satellite tracking list
Your tracking list is empty




NASA's NSSDC Master Catalog

Two Line Element Set (TLE):
1 45442U 20020U   21112.48796808 -.00000162  00000-0 -49209-3 0  9998
2 45442  87.8944  35.1754 0001675  70.0369 290.0939 13.11576692 56015
Source of the keplerian elements: AFSPC